Location: Grand Mazuras
(45.9128°N, 1.7636°E)
Time: 17:50:20
(UTC+00:00)

Cosmos 389 Rocket - Pass Details

Date: 18 April 2021
Orbit: 441 x 472 km, 81.1° (Epoch: 12 May)

Event Time Altitude Azimuth Distance (km) Brightness Sun altitude
Exits shadow 20:00:23 22° 129° (SE) 1,046 3.6 -12.9°
Maximum altitude 20:01:38 28° 93° (E) 894 3.4 -13.1°
Drops below altitude 10° 20:04:44 10° 33° (NNE) 1,629 5.2 -13.6°
Sets 20:07:01 0° 21° (NNE) 2,516 6.3 -13.9°
